Erie, PA

1:19 AM EST on December 06, 2019 (GMT -0500)
Erie International

Weather History for KERI - October, 2019

Change the Weather History Date:

Friday, October 4, 2019

  Actual Average Record
Temperature  
Mean Temperature 55 °F 57 °F  
Max Temperature 64 °F 65 °F 89 °F (1951)
Min Temperature 46 °F 49 °F 30 °F (1974)
Degree Days  
Heating Degree Days 10 9  
Month to date heating degree days 14 33  
Since 1 July heating degree days 26 157  
Cooling Degree Days 0 1  
Month to date cooling degree days 20 4  
Year to date cooling degree days 845 633  
Growing Degree Days 5 (Base 50)    
Moisture  
Dew Point 46 °F    
Average Humidity 69    
Maximum Humidity 86    
Minimum Humidity 62    
Precipitation  
Precipitation 0.03 in 0.15 in 1.67 in (1980)
Month to date precipitation 0.29 0.59  
Year to date precipitation 29.92 31.03  
Snow  
Snow 0.00 in 0.00 in - ()
Month to date snowfall 0.0 0.0  
Since 1 July snowfall 0.0 0.0  
Since 1 September snowfall 0.0 0.0  
Snow Depth 0.00 in    
Sea Level Pressure  
Sea Level Pressure 30.25 in    
Wind  
Wind Speed 12 mph ()    
Max Wind Speed 24 mph    
Max Gust Speed 29 mph    
Visibility 9.6 miles    
Events Rain    
T = Trace of Precipitation, MM = Missing Value Source: Averaged Metar Reports

Daily Weather History Graph

Daily Weather History Graph

Search for Another Location

Airport or City:

Astronomy

Oct. 04, 2019 Rise Set
Actual Time 7:20 AM EDT 6:57 PM EDT
Civil Twilight 6:52 AM EDT 7:25 PM EDT
Nautical Twilight 6:20 AM EDT 7:57 PM EDT
Astronomical Twilight 5:47 AM EDT 8:30 PM EDT
Moon 1:56 PM EDT (10/4) 11:19 PM EDT (10/4)
Length of Visible Light 12h 32m
Length of Day
11h 36m
Waxing Crescent, 39% of the Moon is Illuminated
Oct 4
Waxing Crescent
Oct 5
First Quarter
Oct 13
Full
Oct 21
Last Quarter
Oct 27
New

Hourly Weather History & Observations

Time (EDT) Temp. Windchill Dew Point Humidity Pressure Visibility Wind Dir Wind Speed Gust Speed Precip Events Conditions
12:51 AM 64.0 °F - 54.0 °F 70% 30.05 in 10.0 mi NW 12.7 mph 19.6 mph N/A   Overcast
1:51 AM 63.0 °F - 53.1 °F 70% 30.06 in 10.0 mi NW 16.1 mph 24.2 mph N/A   Overcast
2:51 AM 62.1 °F - 52.0 °F 70% 30.08 in 10.0 mi WNW 15.0 mph 21.9 mph N/A   Overcast
3:27 AM 61.0 °F - 51.1 °F 70% 30.08 in 10.0 mi NW 12.7 mph 21.9 mph N/A   Overcast
3:51 AM 61.0 °F - 51.1 °F 70% 30.09 in 10.0 mi NW 16.1 mph 24.2 mph N/A   Overcast
4:34 AM 61.0 °F - 50.0 °F 67% 30.10 in 10.0 mi NW 16.1 mph 25.3 mph N/A   Overcast
4:51 AM 61.0 °F - 50.0 °F 67% 30.10 in 10.0 mi NW 13.8 mph 25.3 mph N/A   Overcast
5:01 AM 60.1 °F - 50.0 °F 69% 30.11 in 10.0 mi NW 13.8 mph 21.9 mph N/A   Overcast
5:12 AM 61.0 °F - 50.0 °F 67% 30.12 in 10.0 mi NW 10.4 mph 21.9 mph N/A   Overcast
5:51 AM 60.1 °F - 50.0 °F 69% 30.13 in 10.0 mi NW 13.8 mph 25.3 mph N/A   Mostly Cloudy
6:51 AM 60.1 °F - 50.0 °F 69% 30.15 in 10.0 mi North 15.0 mph 20.7 mph N/A   Overcast
7:12 AM 59.0 °F - 50.0 °F 72% 30.16 in 10.0 mi North 13.8 mph 21.9 mph N/A   Overcast
7:34 AM 57.0 °F - 51.1 °F 81% 30.18 in 10.0 mi North 13.8 mph 21.9 mph N/A   Overcast
7:51 AM 57.0 °F - 51.1 °F 81% 30.19 in 10.0 mi North 15.0 mph 20.7 mph N/A   Overcast
8:07 AM 57.0 °F - 51.1 °F 81% 30.20 in 2.5 mi NE 16.1 mph 21.9 mph 0.00 in Rain Light Rain
8:19 AM 55.0 °F - 51.1 °F 86% 30.21 in 2.5 mi NNE 11.5 mph - 0.02 in Rain Light Rain
8:42 AM 55.0 °F - 48.9 °F 80% 30.22 in 8.0 mi NNE 19.6 mph 28.8 mph 0.03 in Rain Light Rain
8:51 AM 55.0 °F - 48.0 °F 77% 30.24 in 10.0 mi NNE 18.4 mph 28.8 mph 0.03 in Rain Light Rain
9:51 AM 55.0 °F - 45.0 °F 69% 30.27 in 10.0 mi NNE 17.3 mph 24.2 mph 0.00 in Rain Light Rain
10:37 AM 55.9 °F - 45.0 °F 67% 30.28 in 10.0 mi NNE 15.0 mph - 0.00 in   Overcast
10:51 AM 55.0 °F - 44.1 °F 67% 30.29 in 10.0 mi NNE 16.1 mph 21.9 mph 0.00 in Rain Light Rain
11:51 AM 54.0 °F - 44.1 °F 69% 30.31 in 10.0 mi NE 15.0 mph - 0.00 in Rain Light Rain
12:51 PM 53.1 °F - 42.1 °F 66% 30.33 in 10.0 mi NE 12.7 mph - 0.00 in Rain Light Rain
1:38 PM 54.0 °F - 41.0 °F 62% 30.33 in 10.0 mi North 12.7 mph - 0.00 in   Overcast
1:51 PM 54.0 °F - 41.0 °F 62% 30.33 in 10.0 mi North 11.5 mph - 0.00 in   Overcast
2:51 PM 53.1 °F - 43.0 °F 69% 30.34 in 10.0 mi NNE 11.5 mph - 0.00 in   Overcast
2:58 PM 53.1 °F - 42.1 °F 66% 30.33 in 10.0 mi NNE 13.8 mph - 0.00 in Rain Light Rain
3:09 PM 53.1 °F - 42.1 °F 66% 30.33 in 10.0 mi NNE 12.7 mph - 0.00 in   Overcast
3:48 PM 53.6 °F - 42.8 °F 67% 30.33 in 10.0 mi NNE 12.7 mph 18.4 mph 0.00 in   Overcast
3:51 PM 53.1 °F - 42.1 °F 66% 30.34 in 10.0 mi NE 11.5 mph - 0.00 in   Overcast
4:19 PM 53.1 °F - 42.1 °F 66% 30.33 in 10.0 mi NNE 11.5 mph - 0.00 in   Overcast
4:27 PM 53.1 °F - 42.1 °F 66% 30.33 in 10.0 mi NNE 9.2 mph - 0.00 in   Overcast
4:51 PM 53.1 °F - 42.1 °F 66% 30.33 in 10.0 mi NNE 13.8 mph - 0.00 in   Overcast
5:16 PM 53.1 °F - 41.0 °F 64% 30.34 in 10.0 mi NE 10.4 mph - N/A   Overcast
5:51 PM 53.1 °F - 41.0 °F 64% 30.35 in 10.0 mi ENE 6.9 mph - N/A   Overcast
6:51 PM 52.0 °F - 41.0 °F 66% 30.35 in 10.0 mi East 6.9 mph - N/A   Overcast
7:51 PM 51.1 °F - 41.0 °F 68% 30.37 in 10.0 mi East 5.8 mph - N/A   Overcast
8:51 PM 51.1 °F - 39.0 °F 63% 30.38 in 10.0 mi East 5.8 mph - N/A   Overcast
9:51 PM 48.9 °F - 37.9 °F 66% 30.40 in 10.0 mi East 6.9 mph - N/A   Mostly Cloudy
10:51 PM 46.9 °F - 37.0 °F 68% 30.39 in 10.0 mi East 5.8 mph - N/A   Clear
11:51 PM 46.0 °F 41.9 °F 37.0 °F 71% 30.40 in 10.0 mi East 8.1 mph - N/A   Partly Cloudy